contact:dominique.lefevre@mio.osupytheas.fr, maurice.libes@osupytheas.fr, didier.mallarino@osupytheas.fr
Project:EMSO http://www.emso-fr.org/EMSO-France
Depth: 2436.0 m
Title:EMSO Ligure Ouest : Data MII capteur AQUADOPP
Date,Latitude,Longitude,X_East,Y_North,Z_Up,Amplitude_X,Amplitude_Y,Amplitude_Z,Batterie,SoundSpeed,Heading,Pitch,Roll,Pressure,TIS,Speed,Direction
, degrees North, degrees East, m.s-1, m.s-1,m.s-1, 1, 1, 1, Volt, m.s-1, degree, degree, degree, dbar, degree_C, m.s-1, degree
2020-11-12T00:04:03,42.805,6.029,-0.008,-0.01,0.033,104.0,107.0,102.0,13.4,1505.3,324.2,-0.8,1.8,2470.378,13.32,0.012,218.7
2020-11-12T00:07:03,42.805,6.029,-0.012,-0.026,0.006,103.0,106.0,102.0,13.4,1505.3,326.5,-0.7,1.8,2470.387,13.33,0.028,204.8
2020-11-12T00:10:03,42.805,6.029,-0.021,-0.007,-0.004,105.0,107.0,101.0,13.4,1505.4,326.5,-0.7,1.9,2470.352,13.34,0.022,251.6
2020-11-12T00:13:03,42.805,6.029,0.01,-0.001,-0.014,105.0,107.0,102.0,13.4,1505.4,326.3,-0.7,1.8,2470.356,13.34,0.01,95.7
2020-11-12T00:19:03,42.805,6.029,-0.033,-0.011,-0.013,105.0,108.0,101.0,13.4,1505.3,325.4,-0.7,1.8,2470.404,13.33,0.034,251.6
2020-11-12T00:22:03,42.805,6.029,-0.011,-0.012,-0.002,106.0,107.0,101.0,13.3,1505.3,324.0,-0.7,1.8,2470.375,13.33,0.016,222.5
2020-11-12T00:25:03,42.805,6.029,-0.028,0.004,-0.04,104.0,107.0,103.0,13.4,1505.4,325.0,-0.7,1.9,2470.375,13.34,0.028,278.1
2020-11-12T00:28:03,42.805,6.029,-0.027,-0.008,-0.036,104.0,108.0,101.0,13.3,1505.4,324.7,-0.7,1.8,2470.35,13.34,0.028,253.5
2020-11-12T00:31:03,42.805,6.029,-0.016,0.005,-0.004,105.0,107.0,105.0,13.4,1505.4,326.6,-0.7,1.8,2470.351,13.34,0.016,287.4
2020-11-12T00:34:03,42.805,6.029,-0.024,-0.003,0.01,103.0,106.0,103.0,13.4,1505.4,326.5,-0.7,1.8,2470.375,13.34,0.024,262.9
2020-11-12T00:37:03,42.805,6.029,-0.021,-0.014,-0.027,104.0,106.0,102.0,13.4,1505.4,324.8,-0.7,1.8,2470.338,13.34,0.025,236.3
2020-11-12T00:40:03,42.805,6.029,-0.016,-0.006,0.021,104.0,106.0,101.0,13.4,1505.4,326.5,-0.7,1.8,2470.302,13.34,0.017,249.4
2020-11-12T00:43:03,42.805,6.029,-0.005,-0.031,0.019,104.0,107.0,101.0,13.4,1505.4,326.5,-0.7,1.8,2470.338,13.34,0.031,189.2
2020-11-12T00:46:03,42.805,6.029,-0.03,0.002,-0.022,103.0,106.0,103.0,13.3,1505.4,326.5,-0.7,1.8,2470.341,13.34,0.03,273.8
2020-11-12T00:49:03,42.805,6.029,-0.023,0.014,-0.016,103.0,108.0,101.0,13.3,1505.4,326.9,-0.7,1.8,2470.339,13.34,0.026,301.3
2020-11-12T00:52:03,42.805,6.029,-0.033,-0.016,-0.018,117.0,108.0,102.0,13.4,1505.4,326.3,-0.7,1.8,2470.348,13.34,0.036,244.1
2020-11-12T00:55:03,42.805,6.029,-0.012,-0.002,-0.024,103.0,108.0,103.0,13.4,1505.4,325.6,-0.7,1.8,2470.341,13.34,0.012,260.5
2020-11-12T00:58:03,42.805,6.029,0.002,0.012,0.013,104.0,107.0,101.0,13.3,1505.4,323.3,-0.7,1.8,2470.372,13.34,0.012,9.5
2020-11-12T01:04:03,42.805,6.029,-0.016,0.016,-0.003,106.0,108.0,103.0,13.4,1505.3,328.2,-0.7,1.8,2470.381,13.33,0.022,315.0
2020-11-12T01:07:03,42.805,6.029,0.008,-0.002,0.013,102.0,108.0,102.0,13.4,1505.3,327.0,-0.7,1.8,2470.371,13.33,0.008,104.0
2020-11-12T01:10:03,42.805,6.029,-0.022,-0.008,0.0,104.0,107.0,100.0,13.3,1505.4,323.7,-0.7,1.8,2470.409,13.34,0.023,250.0
2020-11-12T01:13:03,42.805,6.029,-0.022,0.0,-0.023,104.0,108.0,101.0,13.4,1505.4,326.6,-0.7,1.9,2470.409,13.34,0.022,270.0
2020-11-12T01:16:03,42.805,6.029,-0.01,-0.019,-0.013,104.0,107.0,100.0,13.4,1505.4,324.1,-0.7,1.8,2470.365,13.34,0.021,207.8
2020-11-12T01:19:03,42.805,6.029,-0.008,-0.006,0.004,102.0,107.0,102.0,13.3,1505.4,325.3,-0.7,1.8,2470.36,13.34,0.01,233.1
2020-11-12T01:22:03,42.805,6.029,-0.038,0.003,-0.038,106.0,108.0,102.0,13.4,1505.4,323.7,-0.7,1.8,2470.368,13.35,0.038,274.5
2020-11-12T01:25:03,42.805,6.029,-0.001,-0.018,0.009,104.0,107.0,102.0,13.4,1505.4,328.2,-0.7,1.8,2470.381,13.35,0.018,183.2
2020-11-12T01:28:03,42.805,6.029,0.017,0.006,-0.002,105.0,106.0,101.0,13.3,1505.4,326.5,-0.7,1.8,2470.392,13.35,0.018,70.6
2020-11-12T01:31:03,42.805,6.029,-0.022,0.011,0.016,103.0,107.0,103.0,13.3,1505.4,326.7,-0.7,1.8,2470.365,13.35,0.024,296.6
2020-11-12T01:34:03,42.805,6.029,0.006,0.011,0.007,104.0,107.0,101.0,13.4,1505.4,326.8,-0.7,1.8,2470.366,13.35,0.012,28.6
2020-11-12T01:37:03,42.805,6.029,0.011,0.01,0.021,106.0,107.0,103.0,13.3,1505.4,323.1,-0.7,1.8,2470.365,13.35,0.014,47.7
2020-11-12T01:40:03,42.805,6.029,-0.005,0.0,-0.002,103.0,107.0,101.0,13.4,1505.4,322.9,-0.7,1.8,2470.375,13.35,0.005,270.0
2020-11-12T01:43:03,42.805,6.029,-0.005,-0.014,-0.003,103.0,107.0,102.0,13.4,1505.4,323.1,-0.7,1.8,2470.384,13.35,0.014,199.6
2020-11-12T01:46:03,42.805,6.029,0.0,0.022,0.021,106.0,108.0,102.0,13.3,1505.4,324.0,-0.7,1.8,2470.385,13.35,0.022,0.0
2020-11-12T01:49:03,42.805,6.029,0.021,-0.004,-0.011,104.0,106.0,102.0,13.4,1505.4,327.6,-0.7,1.8,2470.361,13.35,0.021,100.8
2020-11-12T01:52:03,42.805,6.029,0.015,-0.001,0.033,104.0,107.0,102.0,13.4,1505.4,326.3,-0.7,1.8,2470.407,13.35,0.015,93.8
2020-11-12T01:55:03,42.805,6.029,-0.004,-0.003,-0.007,103.0,108.0,102.0,13.4,1505.4,326.1,-0.7,1.8,2470.379,13.35,0.005,233.1
2020-11-12T01:58:03,42.805,6.029,0.0,0.013,0.007,104.0,106.0,101.0,13.4,1505.4,324.2,-0.7,1.9,2470.41,13.35,0.013,0.0
2020-11-12T02:04:03,42.805,6.029,-0.018,-0.007,-0.003,103.0,107.0,102.0,13.3,1505.3,327.8,-0.8,1.8,2470.419,13.33,0.019,248.8
2020-11-12T02:07:03,42.805,6.029,-0.008,-0.013,0.02,106.0,106.0,101.0,13.4,1505.4,327.0,-0.7,1.8,2470.412,13.34,0.015,211.6
2020-11-12T02:10:03,42.805,6.029,-0.023,-0.021,-0.005,103.0,107.0,103.0,13.4,1505.4,326.3,-0.7,1.8,2470.394,13.34,0.031,227.6
2020-11-12T02:13:03,42.805,6.029,-0.017,-0.019,-0.037,103.0,108.0,102.0,13.4,1505.4,323.8,-0.7,1.8,2470.433,13.35,0.025,221.8
2020-11-12T02:16:03,42.805,6.029,-0.003,0.002,-0.024,106.0,108.0,100.0,13.3,1505.4,323.7,-0.7,1.8,2470.44,13.35,0.003,303.7
2020-11-12T02:19:03,42.805,6.029,0.004,-0.01,0.018,103.0,107.0,102.0,13.3,1505.4,327.9,-0.7,1.8,2470.385,13.35,0.01,158.2
2020-11-12T02:22:03,42.805,6.029,-0.055,-0.004,0.003,105.0,107.0,103.0,13.4,1505.4,325.6,-0.7,1.8,2470.422,13.35,0.055,265.8
2020-11-12T02:25:03,42.805,6.029,-0.032,-0.014,-0.014,104.0,107.0,102.0,13.4,1505.4,326.5,-0.7,1.8,2470.453,13.35,0.034,246.4
2020-11-12T02:28:03,42.805,6.029,-0.019,0.004,-0.039,104.0,108.0,102.0,13.4,1505.4,324.4,-0.7,1.8,2470.446,13.35,0.019,281.9
2020-11-12T02:31:03,42.805,6.029,-0.033,-0.004,-0.024,115.0,107.0,101.0,13.4,1505.4,325.2,-0.7,1.8,2470.416,13.35,0.033,263.1
2020-11-12T02:34:03,42.805,6.029,-0.037,-0.006,-0.032,104.0,107.0,102.0,13.3,1505.4,325.9,-0.7,1.8,2470.433,13.35,0.037,260.8
2020-11-12T02:37:03,42.805,6.029,-0.028,-0.016,-0.023,104.0,107.0,101.0,13.4,1505.4,325.1,-0.7,1.8,2470.445,13.35,0.032,240.3
2020-11-12T02:40:03,42.805,6.029,-0.009,0.01,-0.018,103.0,108.0,100.0,13.4,1505.4,327.7,-0.7,1.9,2470.407,13.35,0.013,318.0
2020-11-12T02:43:03,42.805,6.029,-0.018,-0.008,-0.016,104.0,108.0,100.0,13.4,1505.4,327.9,-0.7,1.8,2470.424,13.35,0.019,246.0
2020-11-12T02:46:03,42.805,6.029,-0.011,0.002,0.013,103.0,108.0,102.0,13.3,1505.4,325.7,-0.7,1.8,2470.39,13.35,0.011,280.3
2020-11-12T02:49:03,42.805,6.029,-0.016,-0.018,-0.041,102.0,110.0,100.0,13.3,1505.4,327.6,-0.7,1.8,2470.416,13.35,0.024,221.6
2020-11-12T02:52:03,42.805,6.029,-0.04,-0.014,-0.04,104.0,107.0,101.0,13.4,1505.4,326.0,-0.7,1.8,2470.426,13.35,0.042,250.7
2020-11-12T02:55:03,42.805,6.029,-0.037,0.0,-0.038,104.0,108.0,103.0,13.4,1505.4,327.3,-0.7,1.8,2470.418,13.35,0.037,270.0
2020-11-12T02:58:03,42.805,6.029,-0.022,-0.017,-0.012,104.0,108.0,102.0,13.3,1505.4,323.2,-0.7,1.8,2470.417,13.35,0.027,232.3
2020-11-12T03:04:03,42.805,6.029,-0.018,-0.023,-0.016,102.0,105.0,100.0,13.4,1505.3,326.5,-0.7,1.8,2470.445,13.33,0.029,218.0
2020-11-12T03:07:03,42.805,6.029,-0.021,0.003,-0.004,103.0,107.0,103.0,13.4,1505.4,325.6,-0.7,1.8,2470.453,13.34,0.021,278.1
2020-11-12T03:10:03,42.805,6.029,-0.011,0.0,0.006,103.0,108.0,102.0,13.4,1505.4,325.1,-0.7,1.8,2470.452,13.34,0.011,270.0
2020-11-12T03:13:03,42.805,6.029,-0.019,-0.015,-0.013,104.0,114.0,100.0,13.4,1505.4,324.4,-0.7,1.8,2470.43,13.34,0.024,231.7
2020-11-12T03:16:03,42.805,6.029,-0.034,0.002,0.003,105.0,107.0,101.0,13.4,1505.4,325.9,-0.7,1.8,2470.45,13.34,0.034,273.4
2020-11-12T03:19:03,42.805,6.029,-0.019,0.001,-0.016,105.0,105.0,102.0,13.4,1505.4,328.4,-0.7,1.8,2470.453,13.35,0.019,273.0
2020-11-12T03:22:03,42.805,6.029,-0.011,0.005,0.005,105.0,107.0,100.0,13.4,1505.4,324.1,-0.7,1.8,2470.476,13.35,0.012,294.4
2020-11-12T03:25:03,42.805,6.029,-0.016,-0.01,-0.011,104.0,107.0,101.0,13.4,1505.4,323.8,-0.7,1.8,2470.48,13.35,0.018,238.0
2020-11-12T03:28:03,42.805,6.029,0.006,-0.022,-0.013,103.0,108.0,102.0,13.4,1505.4,326.0,-0.7,1.9,2470.478,13.35,0.022,164.7
2020-11-12T03:31:03,42.805,6.029,0.001,0.002,0.018,103.0,110.0,100.0,13.4,1505.4,326.0,-0.7,1.9,2470.446,13.35,0.002,26.6
2020-11-12T03:34:03,42.805,6.029,0.009,-0.028,0.013,107.0,111.0,101.0,13.3,1505.4,326.8,-0.7,1.9,2470.458,13.35,0.029,162.2
2020-11-12T03:37:03,42.805,6.029,-0.007,0.0,-0.007,104.0,109.0,101.0,13.3,1505.4,326.6,-0.7,1.8,2470.46,13.35,0.007,270.0
2020-11-12T03:40:03,42.805,6.029,0.013,-0.004,0.021,104.0,107.0,101.0,13.4,1505.4,323.4,-0.7,1.8,2470.433,13.35,0.013,107.1
2020-11-12T03:43:03,42.805,6.029,0.012,0.0,-0.003,103.0,109.0,102.0,13.4,1505.4,327.9,-0.7,1.8,2470.462,13.35,0.012,90.0
2020-11-12T03:46:03,42.805,6.029,0.009,-0.021,0.023,105.0,109.0,102.0,13.4,1505.4,324.5,-0.7,1.8,2470.511,13.35,0.022,156.8
2020-11-12T03:49:03,42.805,6.029,0.015,-0.007,0.0,105.0,107.0,102.0,13.3,1505.4,326.7,-0.7,1.8,2470.496,13.35,0.016,115.0
2020-11-12T03:52:03,42.805,6.029,0.03,-0.015,0.046,108.0,107.0,102.0,13.4,1505.4,327.9,-0.7,1.8,2470.47,13.35,0.033,116.6
2020-11-12T03:55:03,42.805,6.029,0.025,-0.009,0.008,104.0,109.0,102.0,13.4,1505.4,324.5,-0.7,1.8,2470.495,13.35,0.026,109.8
2020-11-12T03:58:03,42.805,6.029,0.006,0.003,0.039,104.0,108.0,103.0,13.3,1505.4,324.0,-0.7,1.8,2470.484,13.35,0.006,63.4
2020-11-12T04:04:03,42.805,6.029,0.029,-0.001,0.013,106.0,109.0,103.0,13.3,1505.3,325.0,-0.7,1.8,2470.501,13.33,0.029,92.0
2020-11-12T04:07:03,42.805,6.029,0.016,0.009,0.02,104.0,109.0,101.0,13.4,1505.4,325.8,-0.7,1.8,2470.515,13.34,0.018,60.6
2020-11-12T04:10:03,42.805,6.029,-0.004,-0.02,0.026,104.0,107.0,102.0,13.4,1505.4,324.8,-0.7,1.8,2470.496,13.34,0.02,191.3
2020-11-12T04:13:03,42.805,6.029,0.031,-0.016,0.014,104.0,109.0,100.0,13.3,1505.4,326.3,-0.7,1.8,2470.531,13.34,0.034,117.3
2020-11-12T04:16:03,42.805,6.029,0.007,-0.001,0.012,107.0,108.0,101.0,13.4,1505.4,326.7,-0.7,1.8,2470.482,13.34,0.007,98.1
2020-11-12T04:19:03,42.805,6.029,0.009,-0.001,0.029,103.0,108.0,101.0,13.4,1505.4,325.9,-0.7,1.9,2470.492,13.34,0.009,96.3
2020-11-12T04:22:03,42.805,6.029,0.017,0.0,0.062,103.0,107.0,102.0,13.3,1505.4,326.8,-0.7,1.8,2470.456,13.34,0.017,90.0
2020-11-12T04:25:03,42.805,6.029,0.025,-0.002,0.031,103.0,108.0,102.0,13.4,1505.4,326.4,-0.7,1.8,2470.488,13.34,0.025,94.6
2020-11-12T04:28:03,42.805,6.029,0.0,-0.015,-0.003,105.0,107.0,100.0,13.4,1505.4,324.4,-0.7,1.8,2470.503,13.34,0.015,180.0
2020-11-12T04:31:03,42.805,6.029,0.012,-0.014,0.029,105.0,108.0,103.0,13.4,1505.4,324.5,-0.7,1.8,2470.496,13.34,0.018,139.4
2020-11-12T04:34:03,42.805,6.029,-0.016,-0.013,0.01,104.0,108.0,102.0,13.4,1505.4,327.3,-0.7,1.8,2470.534,13.34,0.02,230.9
2020-11-12T04:37:03,42.805,6.029,0.004,0.007,0.014,102.0,108.0,102.0,13.4,1505.4,327.3,-0.7,1.8,2470.483,13.34,0.008,29.7
2020-11-12T04:40:03,42.805,6.029,0.029,-0.001,0.022,105.0,108.0,102.0,13.4,1505.4,327.7,-0.7,1.8,2470.507,13.34,0.029,92.0
2020-11-12T04:43:03,42.805,6.029,0.031,-0.013,0.043,106.0,107.0,102.0,13.3,1505.4,327.9,-0.7,1.9,2470.499,13.34,0.033,112.7
2020-11-12T04:46:03,42.805,6.029,0.024,-0.013,0.008,103.0,109.0,103.0,13.4,1505.4,325.9,-0.7,1.8,2470.497,13.34,0.027,118.4
2020-11-12T04:49:03,42.805,6.029,0.013,-0.001,0.031,104.0,107.0,100.0,13.4,1505.4,324.3,-0.7,1.8,2470.485,13.34,0.013,94.4
2020-11-12T04:52:03,42.805,6.029,0.023,-0.011,0.022,102.0,108.0,103.0,13.4,1505.4,325.7,-0.7,1.8,2470.47,13.34,0.025,115.6
2020-11-12T04:55:03,42.805,6.029,0.004,0.013,0.018,104.0,107.0,102.0,13.4,1505.4,323.2,-0.7,1.8,2470.501,13.34,0.013,17.1
2020-11-12T04:58:03,42.805,6.029,-0.015,-0.004,0.016,104.0,107.0,103.0,13.3,1505.4,324.7,-0.7,1.8,2470.492,13.34,0.015,255.1
2020-11-12T05:04:03,42.805,6.029,0.022,-0.009,0.038,105.0,109.0,103.0,13.4,1505.3,326.5,-0.7,1.8,2470.505,13.32,0.023,112.2
2020-11-12T05:07:03,42.805,6.029,0.019,-0.012,0.011,102.0,108.0,101.0,13.3,1505.3,324.2,-0.7,1.8,2470.494,13.32,0.022,122.3
2020-11-12T05:10:03,42.805,6.029,0.003,0.0,0.031,104.0,108.0,102.0,13.3,1505.3,324.3,-0.7,1.8,2470.545,13.33,0.003,90.0
2020-11-12T05:13:03,42.805,6.029,0.014,-0.005,0.025,105.0,106.0,101.0,13.4,1505.3,328.1,-0.7,1.8,2470.472,13.33,0.014,109.6
2020-11-12T05:16:03,42.805,6.029,-0.02,0.002,-0.032,105.0,108.0,102.0,13.4,1505.3,322.8,-0.7,1.9,2470.516,13.33,0.02,275.7
2020-11-12T05:19:03,42.805,6.029,0.002,-0.016,-0.011,103.0,108.0,102.0,13.4,1505.3,327.7,-0.7,1.9,2470.512,13.33,0.016,172.9
2020-11-12T05:22:03,42.805,6.029,-0.011,0.004,0.021,105.0,109.0,102.0,13.4,1505.3,327.7,-0.7,1.8,2470.494,13.33,0.011,290.0
2020-11-12T05:25:03,42.805,6.029,-0.031,-0.015,-0.041,107.0,107.0,101.0,13.3,1505.3,324.5,-0.7,1.8,2470.481,13.33,0.034,244.2
2020-11-12T05:28:03,42.805,6.029,-0.021,-0.005,0.0,105.0,108.0,101.0,13.4,1505.3,324.6,-0.7,1.8,2470.486,13.33,0.021,256.6
2020-11-12T05:31:03,42.805,6.029,-0.026,-0.032,-0.021,106.0,106.0,100.0,13.4,1505.3,324.9,-0.7,1.9,2470.497,13.33,0.041,219.1
2020-11-12T05:34:03,42.805,6.029,-0.032,-0.029,-0.018,104.0,107.0,101.0,13.4,1505.3,323.5,-0.7,1.8,2470.494,13.33,0.043,227.8
2020-11-12T05:37:03,42.805,6.029,-0.015,-0.011,-0.025,106.0,107.0,102.0,13.4,1505.3,324.1,-0.7,1.8,2470.485,13.33,0.018,233.7
2020-11-12T05:40:03,42.805,6.029,-0.039,-0.017,-0.058,106.0,106.0,101.0,13.4,1505.3,326.8,-0.7,1.8,2470.457,13.33,0.042,246.5
2020-11-12T05:43:03,42.805,6.029,-0.028,-0.016,-0.029,105.0,108.0,100.0,13.4,1505.3,325.5,-0.6,1.8,2470.505,13.33,0.032,240.3
2020-11-12T05:46:03,42.805,6.029,-0.021,-0.022,-0.045,103.0,107.0,102.0,13.4,1505.3,324.9,-0.7,1.8,2470.46,13.33,0.03,223.7
2020-11-12T05:49:03,42.805,6.029,-0.019,-0.033,-0.021,105.0,107.0,101.0,13.4,1505.3,323.0,-0.7,1.8,2470.47,13.33,0.038,209.9
2020-11-12T05:52:03,42.805,6.029,-0.046,-0.007,-0.021,102.0,107.0,102.0,13.4,1505.3,325.0,-0.7,1.8,2470.482,13.33,0.046,261.3
2020-11-12T05:55:03,42.805,6.029,-0.043,-0.036,-0.042,105.0,107.0,102.0,13.3,1505.3,327.1,-0.7,1.8,2470.497,13.33,0.056,230.1
2020-11-12T05:58:03,42.805,6.029,-0.026,-0.031,-0.047,103.0,108.0,101.0,13.4,1505.3,323.8,-0.7,1.8,2470.467,13.33,0.04,220.0
2020-11-12T06:04:03,42.805,6.029,-0.017,0.001,-0.01,104.0,107.0,101.0,13.4,1505.3,325.4,-0.7,1.8,2470.506,13.31,0.017,273.4
2020-11-12T06:07:03,42.805,6.029,-0.037,-0.003,0.004,104.0,107.0,101.0,13.4,1505.3,325.2,-0.7,1.8,2470.519,13.32,0.037,265.4
2020-11-12T06:10:03,42.805,6.029,-0.034,-0.026,-0.046,104.0,108.0,101.0,13.3,1505.3,327.0,-0.7,1.9,2470.512,13.32,0.042,232.6
2020-11-12T06:13:03,42.805,6.029,-0.051,-0.039,-0.014,105.0,107.0,100.0,13.3,1505.3,324.7,-0.7,1.8,2470.477,13.33,0.064,232.6
2020-11-12T06:16:03,42.805,6.029,-0.041,-0.037,-0.053,105.0,107.0,101.0,13.4,1505.3,326.3,-0.7,1.8,2470.47,13.33,0.055,227.9
2020-11-12T06:19:03,42.805,6.029,-0.027,-0.021,-0.028,104.0,106.0,102.0,13.3,1505.3,324.5,-0.7,1.8,2470.46,13.33,0.034,232.1
2020-11-12T06:22:03,42.805,6.029,-0.046,-0.02,-0.013,105.0,106.0,102.0,13.4,1505.3,327.6,-0.7,1.8,2470.448,13.33,0.05,246.5
2020-11-12T06:25:03,42.805,6.029,-0.022,-0.002,-0.03,103.0,106.0,102.0,13.3,1505.3,324.7,-0.7,1.8,2470.493,13.33,0.022,264.8
2020-11-12T06:28:03,42.805,6.029,-0.029,-0.029,-0.006,103.0,106.0,102.0,13.4,1505.3,326.0,-0.7,1.8,2470.445,13.33,0.041,225.0
2020-11-12T06:31:03,42.805,6.029,-0.006,-0.015,0.044,103.0,107.0,101.0,13.3,1505.3,324.2,-0.7,1.8,2470.492,13.33,0.016,201.8
2020-11-12T06:34:03,42.805,6.029,-0.028,-0.025,-0.044,103.0,106.0,102.0,13.3,1505.3,325.4,-0.7,1.8,2470.475,13.33,0.037,228.2
2020-11-12T06:37:03,42.805,6.029,-0.024,-0.014,-0.023,103.0,107.0,100.0,13.4,1505.3,324.3,-0.7,1.8,2470.458,13.33,0.027,239.7
2020-11-12T06:40:03,42.805,6.029,-0.014,-0.017,0.009,105.0,106.0,102.0,13.4,1505.3,326.8,-0.7,1.8,2470.43,13.33,0.022,219.5
2020-11-12T06:43:03,42.805,6.029,-0.046,-0.001,-0.041,104.0,108.0,102.0,13.3,1505.3,327.9,-0.7,1.8,2470.467,13.33,0.046,268.8
2020-11-12T06:46:03,42.805,6.029,-0.005,-0.026,-0.016,104.0,108.0,102.0,13.3,1505.3,325.3,-0.7,1.8,2470.478,13.33,0.026,190.9
2020-11-12T06:49:03,42.805,6.029,0.003,-0.026,-0.03,104.0,105.0,102.0,13.3,1505.3,322.7,-0.7,1.8,2470.422,13.33,0.026,173.4
2020-11-12T06:52:03,42.805,6.029,-0.021,-0.021,-0.024,105.0,108.0,101.0,13.3,1505.3,326.2,-0.7,1.8,2470.47,13.33,0.029,225.0
2020-11-12T06:55:03,42.805,6.029,0.0,-0.004,-0.002,104.0,106.0,102.0,13.4,1505.3,325.9,-0.7,1.9,2470.424,13.33,0.004,180.0
2020-11-12T06:58:03,42.805,6.029,-0.019,-0.019,-0.037,104.0,106.0,103.0,13.4,1505.3,324.7,-0.7,1.8,2470.445,13.33,0.026,225.0
2020-11-12T07:04:03,42.805,6.029,0.009,-0.013,-0.017,104.0,108.0,102.0,13.4,1505.3,324.2,-0.7,1.8,2470.468,13.31,0.015,145.3
2020-11-12T07:07:03,42.805,6.029,-0.001,-0.012,-0.005,105.0,109.0,100.0,13.3,1505.3,325.0,-0.7,1.8,2470.476,13.32,0.012,184.8
2020-11-12T07:10:03,42.805,6.029,0.015,-0.017,0.031,105.0,108.0,102.0,13.4,1505.3,324.3,-0.7,1.8,2470.496,13.32,0.022,138.6
2020-11-12T07:13:03,42.805,6.029,0.001,-0.011,0.023,103.0,109.0,102.0,13.4,1505.3,325.8,-0.7,1.8,2470.473,13.32,0.011,174.8
2020-11-12T07:16:03,42.805,6.029,0.012,-0.023,0.016,105.0,109.0,101.0,13.3,1505.3,325.1,-0.7,1.8,2470.485,13.33,0.025,152.4
2020-11-12T07:19:03,42.805,6.029,-0.045,-0.028,-0.048,105.0,108.0,102.0,13.4,1505.3,325.1,-0.7,1.8,2470.473,13.33,0.053,238.1
2020-11-12T07:22:03,42.805,6.029,-0.025,-0.023,-0.017,105.0,107.0,101.0,13.3,1505.3,324.2,-0.7,1.9,2470.421,13.33,0.033,227.4
2020-11-12T07:25:03,42.805,6.029,-0.031,-0.023,-0.02,103.0,108.0,101.0,13.4,1505.3,326.0,-0.7,1.8,2470.454,13.33,0.038,233.4
2020-11-12T07:28:03,42.805,6.029,-0.029,-0.036,-0.035,105.0,107.0,102.0,13.4,1505.3,325.2,-0.7,1.8,2470.44,13.33,0.046,218.9
2020-11-12T07:31:03,42.805,6.029,-0.035,-0.019,-0.046,103.0,107.0,101.0,13.4,1505.3,324.6,-0.7,1.8,2470.457,13.33,0.039,241.5
2020-11-12T07:34:03,42.805,6.029,-0.071,-0.024,-0.069,105.0,107.0,103.0,13.3,1505.3,325.1,-0.7,1.8,2470.412,13.33,0.074,251.3
2020-11-12T07:37:03,42.805,6.029,-0.04,-0.023,-0.058,104.0,109.0,102.0,13.4,1505.3,324.2,-0.7,1.8,2470.434,13.33,0.046,240.1
2020-11-12T07:40:03,42.805,6.029,0.021,-0.011,0.021,105.0,107.0,103.0,13.4,1505.3,323.1,-0.7,1.9,2470.439,13.33,0.023,117.6
2020-11-12T07:49:03,42.805,6.029,-0.038,-0.03,-0.054,104.0,108.0,101.0,13.4,1505.3,324.3,-0.8,1.8,2470.437,13.31,0.048,231.7
2020-11-12T07:52:03,42.805,6.029,-0.018,-0.013,-0.036,105.0,108.0,102.0,13.4,1505.3,324.0,-0.7,1.8,2470.457,13.32,0.022,234.2
2020-11-12T07:55:03,42.805,6.029,-0.047,-0.014,-0.042,105.0,108.0,102.0,13.4,1505.3,324.7,-0.7,1.8,2470.448,13.32,0.049,253.4
2020-11-12T07:58:03,42.805,6.029,-0.005,-0.01,0.016,105.0,107.0,103.0,13.3,1505.3,325.9,-0.7,1.8,2470.447,13.32,0.011,206.6
2020-11-12T08:04:03,42.805,6.029,-0.046,-0.02,-0.017,103.0,108.0,103.0,13.4,1505.3,325.3,-0.7,1.8,2470.485,13.31,0.05,246.5
2020-11-12T08:07:03,42.805,6.029,-0.034,-0.031,-0.009,106.0,107.0,102.0,13.3,1505.3,323.8,-0.7,1.8,2470.468,13.32,0.046,227.6
2020-11-12T08:10:03,42.805,6.029,-0.035,-0.018,-0.068,104.0,107.0,103.0,13.3,1505.3,325.3,-0.7,1.9,2470.477,13.32,0.039,242.8
2020-11-12T08:13:03,42.805,6.029,-0.038,-0.022,-0.06,105.0,109.0,103.0,13.4,1505.3,326.0,-0.7,1.8,2470.413,13.33,0.043,239.9
2020-11-12T08:16:03,42.805,6.029,-0.031,-0.025,-0.024,106.0,105.0,102.0,13.3,1505.3,323.1,-0.7,1.9,2470.43,13.33,0.039,231.1
2020-11-12T08:19:03,42.805,6.029,-0.046,-0.036,-0.043,105.0,105.0,102.0,13.3,1505.3,328.2,-0.7,1.8,2470.426,13.33,0.058,232.0
2020-11-12T08:22:03,42.805,6.029,-0.026,-0.024,-0.046,104.0,106.0,102.0,13.4,1505.3,324.7,-0.7,1.9,2470.375,13.33,0.035,227.3
2020-11-12T08:25:03,42.805,6.029,-0.032,-0.012,-0.031,106.0,108.0,102.0,13.4,1505.3,324.0,-0.7,1.8,2470.384,13.33,0.034,249.4
2020-11-12T08:28:03,42.805,6.029,-0.023,-0.018,0.006,105.0,106.0,102.0,13.4,1505.3,324.4,-0.7,1.9,2470.41,13.33,0.029,232.0
2020-11-12T08:31:03,42.805,6.029,-0.063,-0.03,-0.03,104.0,108.0,102.0,13.4,1505.3,324.8,-0.7,1.8,2470.38,13.33,0.069,244.5
2020-11-12T08:34:03,42.805,6.029,-0.031,-0.021,-0.012,104.0,106.0,102.0,13.4,1505.3,324.3,-0.7,1.8,2470.382,13.33,0.037,235.9
2020-11-12T08:37:03,42.805,6.029,-0.011,-0.004,-0.007,104.0,106.0,102.0,13.4,1505.4,326.0,-0.7,1.9,2470.427,13.34,0.011,250.0
2020-11-12T08:40:03,42.805,6.029,-0.019,-0.017,-0.009,105.0,106.0,103.0,13.4,1505.3,326.4,-0.7,1.8,2470.402,13.33,0.025,228.2
2020-11-12T08:43:03,42.805,6.029,-0.006,-0.023,0.012,105.0,105.0,102.0,13.4,1505.3,326.6,-0.7,1.8,2470.386,13.33,0.023,194.6
2020-11-12T08:46:03,42.805,6.029,-0.003,-0.002,-0.003,105.0,105.0,101.0,13.3,1505.3,326.4,-0.7,1.8,2470.385,13.33,0.003,236.3
2020-11-12T08:49:03,42.805,6.029,0.008,-0.019,0.002,104.0,106.0,103.0,13.3,1505.4,325.2,-0.7,1.8,2470.397,13.34,0.02,157.2
2020-11-12T08:52:03,42.805,6.029,0.006,-0.019,-0.014,105.0,107.0,102.0,13.4,1505.3,324.6,-0.7,1.8,2470.383,13.33,0.019,162.5
2020-11-12T08:55:03,42.805,6.029,-0.019,-0.025,-0.019,106.0,106.0,102.0,13.4,1505.3,325.0,-0.7,1.8,2470.385,13.33,0.031,217.2
2020-11-12T08:58:03,42.805,6.029,-0.029,-0.02,-0.024,105.0,106.0,103.0,13.4,1505.3,324.4,-0.7,1.9,2470.375,13.33,0.035,235.4
2020-11-12T09:04:03,42.805,6.029,-0.004,-0.03,-0.005,104.0,105.0,102.0,13.4,1505.3,325.2,-0.7,1.8,2470.444,13.31,0.03,187.6
2020-11-12T09:07:03,42.805,6.029,-0.001,-0.046,-0.059,105.0,106.0,102.0,13.4,1505.3,325.9,-0.7,1.8,2470.443,13.32,0.046,181.2
2020-11-12T09:10:03,42.805,6.029,-0.006,-0.017,0.026,104.0,105.0,101.0,13.3,1505.3,325.9,-0.7,1.8,2470.416,13.32,0.018,199.4
2020-11-12T09:13:03,42.805,6.029,-0.014,-0.025,-0.039,105.0,105.0,102.0,13.3,1505.3,325.2,-0.7,1.9,2470.407,13.33,0.028,209.3
2020-11-12T09:16:03,42.805,6.029,-0.029,-0.01,-0.008,104.0,105.0,102.0,13.3,1505.3,326.0,-0.7,1.8,2470.424,13.33,0.03,251.0
2020-11-12T09:19:03,42.805,6.029,0.003,-0.008,0.034,104.0,106.0,101.0,13.4,1505.3,323.2,-0.7,1.8,2470.436,13.33,0.008,159.4
2020-11-12T09:22:03,42.805,6.029,0.012,-0.005,0.021,103.0,106.0,102.0,13.3,1505.3,324.8,-0.7,1.8,2470.355,13.33,0.013,112.6
2020-11-12T09:25:03,42.805,6.029,0.013,-0.004,-0.009,104.0,106.0,102.0,13.3,1505.3,324.3,-0.7,1.8,2470.4,13.33,0.013,107.1
2020-11-12T09:28:03,42.805,6.029,-0.034,-0.031,-0.035,105.0,106.0,102.0,13.4,1505.3,323.6,-0.7,1.8,2470.36,13.33,0.046,227.6
2020-11-12T09:31:03,42.805,6.029,-0.001,-0.016,-0.029,103.0,106.0,102.0,13.4,1505.3,323.5,-0.7,1.8,2470.384,13.33,0.016,183.6
2020-11-12T09:34:03,42.805,6.029,-0.028,-0.011,-0.027,102.0,107.0,102.0,13.4,1505.3,322.8,-0.7,1.9,2470.385,13.33,0.03,248.6
2020-11-12T09:37:03,42.805,6.029,-0.01,-0.033,-0.027,104.0,106.0,103.0,13.4,1505.3,323.4,-0.7,1.8,2470.382,13.33,0.034,196.9
2020-11-12T09:43:03,42.805,6.029,-0.024,-0.02,-0.027,103.0,107.0,102.0,13.4,1505.3,327.1,-0.8,1.9,2470.411,13.31,0.031,230.2
2020-11-12T09:46:03,42.805,6.029,-0.008,-0.028,0.011,104.0,105.0,102.0,13.3,1505.3,327.0,-0.7,1.8,2470.443,13.32,0.029,195.9
2020-11-12T09:49:03,42.805,6.029,-0.026,-0.005,-0.008,105.0,105.0,102.0,13.4,1505.3,326.7,-0.7,1.8,2470.396,13.32,0.026,259.1
2020-11-12T09:52:03,42.805,6.029,-0.021,-0.026,-0.023,103.0,108.0,101.0,13.4,1505.3,323.0,-0.7,1.8,2470.386,13.32,0.033,218.9
2020-11-12T09:55:03,42.805,6.029,-0.027,-0.017,0.016,104.0,106.0,102.0,13.4,1505.3,325.1,-0.7,1.8,2470.385,13.32,0.031,237.8
2020-11-12T09:58:03,42.805,6.029,-0.023,-0.023,0.015,104.0,106.0,102.0,13.4,1505.3,322.8,-0.7,1.8,2470.368,13.33,0.032,225.0
2020-11-12T10:04:03,42.805,6.029,-0.031,-0.001,-0.02,104.0,104.0,101.0,13.4,1505.3,324.7,-0.8,1.8,2470.4,13.31,0.031,268.2
2020-11-12T10:07:03,42.805,6.029,-0.004,-0.012,-0.002,103.0,105.0,101.0,13.4,1505.3,325.8,-0.7,1.8,2470.361,13.31,0.012,198.4